Location: Seattle
(47.6064°N, 122.3308°W)
Time: 11:01:38
(UTC-07:00)

ISS - Visible Passes

Search period start: 19 April 2025 00:00
Search period end: 29 April 2025 00:00
Orbit: 414 x 421 km, 51.6° (Epoch: 19 April)

Date Brightness Start Highest point End Pass type
(mag) Time Alt. Az. Time Alt. Az. Time Alt. Az.
19 Apr -1.7 05:35:50 10° SSW 05:38:27 21° SE 05:41:05 10° E visible
20 Apr -1.2 04:48:44 10° SSE 04:50:32 14° SE 04:52:20 10° ESE visible
21 Apr -3.1 05:35:28 10° SW 05:38:42 48° SSE 05:41:56 10° ENE visible
22 Apr -2.5 04:48:35 17° SSW 04:50:37 31° SE 04:53:38 10° E visible
23 Apr -2.0 04:02:13 20° SSE 04:02:33 21° SE 04:05:07 10° E visible
24 Apr -1.0 03:15:46 11° ESE 03:15:46 11° ESE 03:16:11 10° ESE visible
24 Apr -3.7 04:48:40 21° SW 04:50:45 70° SSE 04:54:05 10° ENE visible
25 Apr -3.3 04:02:08 43° S 04:02:32 46° SSE 04:05:46 10° ENE visible
26 Apr -1.9 03:15:31 23° ESE 03:15:31 23° ESE 03:17:18 10° E visible
26 Apr -3.5 04:48:25 16° W 04:50:56 63° NNW 04:54:15 10° ENE visible
27 Apr -3.9 04:01:44 48° WSW 04:02:33 85° NNW 04:05:55 10° ENE visible
28 Apr -2.9 03:15:00 46° E 03:15:00 46° E 03:17:32 10° ENE visible
28 Apr -2.8 04:47:54 10° W 04:51:06 43° N 04:54:19 10° ENE visible
